Location: Buckeye Ditch
(40.9104°N, 122.9517°W)
Time: 01:24:41
(UTC+00:00)

SR - Pass Details

Date: 27 May 2025
Orbit: 570 x 855 km, 66.7° (Epoch: 11 June)

Event Time Altitude Azimuth Distance (km) Brightness Sun altitude
Exits shadow 05:11:09 18° 107° (ESE) 1,956 ? -15.3°
Maximum altitude 05:11:20 18° 105° (ESE) 1,956 ? -15.3°
Drops below altitude 10° 05:15:09 10° 63° (ENE) 2,487 ? -15.8°
Sets 05:18:20 0° 46° (NE) 3,415 ? -16.2°
